sat.trackr.live / text

‹ back to catalog

PRAETORIAN SDA_614

NORAD 65577 · 2025-203N

PAYLOAD ACTIVE UNKNOWN

§ Identity

Operator
Country
US
Launch date
2025-09-10
Launch site
AFWTR
Launch vehicle
Mass (kg)
RCS (m²)

Purposes: military

External: N2YO · Heavens-Above · Gunter

§ Orbital elements

Epoch: 2026-09-20T01:09:12.960288Z

Period
103.99 min
Inclination
81.2979°
Eccentricity
0.0006094
Mean motion
13.84784567 rev/d
Perigee alt
942.5 km
Apogee alt
951.4 km
Semi-major
7,325.1 km
B*
3.6986e-5
RAAN
282.6455°
Arg perigee
297.4517°
Mean anomaly
62.6020°
Rev number
5,184

§ Raw data

PRAETORIAN SDA_6141 65577U 25203N   26263.04806667  .00000053  00000+0  36986-4 0  99912 65577  81.2979 282.6455 0006094 297.4517  62.6020 13.84784567 51841

JSON: /api/v1/satellites/65577 · /tle

For live sub-satellite position, see the globe view (requires WebGL).

§ Visibility from observer

Set your observer location to see the next 7 days of passes ≥ 10°. The values pass through the URL so the page stays shareable.

No JS? Fill the form by hand. The geolocation button needs JavaScript.